Location: PSU-Greenbush Astrophysical Observatory
(37.5140°N, 94.9880°W)
Time: 17:10:09
(UTC-06:00)

Courier 1B - Visible Passes

Search period start: 20 January 2020 00:00
Search period end: 30 January 2020 00:00
Orbit: 962 x 1209 km, 28.3° (Epoch: 20 January)

Date Brightness Start Highest point End Pass type
(mag) Time Alt. Az. Time Alt. Az. Time Alt. Az.
20 Jan 10.1 03:29:54 15° SE 03:29:54 15° SE 03:31:55 10° ESE visible
20 Jan 9.0 05:16:48 23° SSW 05:20:29 35° SSE 05:27:26 10° ESE visible
21 Jan 9.0 04:26:36 31° SSE 04:26:42 31° SSE 04:33:20 10° ESE visible
21 Jan 8.8 06:13:30 11° WSW 06:20:24 43° S 06:27:42 10° ESE visible
22 Jan 9.8 03:36:20 19° ESE 03:36:20 19° ESE 03:39:06 10° ESE visible
22 Jan 8.7 05:23:13 28° SW 05:26:34 41° S 05:33:47 10° ESE visible
23 Jan 8.7 04:32:54 38° SSE 04:32:54 38° SSE 04:39:47 10° ESE visible
23 Jan 8.8 06:19:48 12° WSW 06:26:32 42° S 06:33:48 10° ESE visible
24 Jan 9.6 03:42:33 23° ESE 03:42:33 23° ESE 03:45:43 10° ESE visible
24 Jan 8.6 05:29:27 29° SW 05:32:42 42° S 05:39:59 10° ESE visible
25 Jan 8.5 04:39:04 41° S 04:39:04 41° S 04:46:03 10° ESE visible
25 Jan 8.9 06:25:57 11° WSW 06:32:40 37° S 06:39:41 10° SE visible
26 Jan 9.5 03:48:40 25° ESE 03:48:40 25° ESE 03:52:05 10° ESE visible
26 Jan 8.7 05:35:33 27° SW 05:38:51 40° S 05:45:58 10° ESE visible
27 Jan 8.5 04:45:09 41° S 04:45:09 41° S 04:52:09 10° ESE visible
27 Jan 9.1 06:32:23 10° WSW 06:38:44 29° SSW 06:45:15 10° SE visible
28 Jan 9.4 03:54:45 26° SE 03:54:45 26° SE 03:58:17 10° ESE visible
28 Jan 8.8 05:41:39 23° SW 05:44:57 33° SSW 05:51:43 10° SE visible
29 Jan 8.6 04:51:15 36° S 04:51:15 36° S 04:58:03 10° SE visible
29 Jan 9.5 06:39:24 10° WSW 06:44:44 21° SSW 06:50:14 10° SSE visible
